Regional Weather Roundup
Issued by NWS

Home | Current Version | Previous Version | Text Only | Print | Product List | Glossary Off
Versions: 1 2 3 4 5 6 7 8 9 10 11 12 13 14 15 16 17 18 19 20 21 22 23 24 25 26 27 28 29 30 31 32 33 34 35 36 37 38 39 40 41 42 43 44 45 46 47 48 49 50

000
ASUS43 KDMX 212001
RWRIA

WEATHER ROUNDUP FOR IOWA
NATIONAL WEATHER SERVICE DES MOINES IA
300 PM CDT SAT APR 21 2018

NOTE: "FAIR" INDICATES FEW OR NO CLOUDS BELOW 12,000 FEET WITH NO
SIGNIFICANT WEATHER AND/OR OBSTRUCTIONS TO VISIBILITY.

* - THESE STATIONS ARE NOT NWS STATIONS...THUS NOT UNDER NWS
QUALITY CONTROL.  THEY ALSO DO NOT REPORT WEATHER SUCH
AS PRECIPITATION OR FOG.

IAZ001>003-012>014-020>022-031>034-043>046-212100-
   NORTHWEST IOWA

CITY           SKY/WX    TMP DP  RH WIND       PRES   REMARKS
CARROLL *      CLOUDY    55  27  33 SE13      30.28F
CHEROKEE *     MOSUNNY   52  36  53 E12       30.31F
DENISON *      CLOUDY    55  25  30 SE12      30.29F
LE MARS *      CLOUDY    54  34  47 E12G17    30.30F
ORANGE CITY *  MOSUNNY   55  36  47 E12G18    30.30F
SHELDON *      CLOUDY    54  36  50 E16       30.30F
SIOUX CITY     CLOUDY    52  35  52 E9        30.28F
SPENCER        CLOUDY    50  34  54 E13       30.33F
STORM LAKE *   CLOUDY    46  39  76 NE12      30.30F
$$

IAZ055>058-069>071-079>083-090>094-212100-
   SOUTHWEST IOWA

CITY           SKY/WX    TMP DP  RH WIND       PRES   REMARKS
ATLANTIC *     CLOUDY    55  25  30 E8        30.26F
AUDUBON *      CLOUDY    55  21  26 SE12      30.29F
CLARINDA *     CLOUDY    57  27  30 NE6       30.25F
COUNCIL BLFS * CLOUDY    55  30  38 SE12      30.25F
CRESTON *      CLOUDY    57  23  26 E14G21    30.26F
HARLAN  *      CLOUDY    55  27  33 E10       30.29F
LAMONI         CLOUDY    55  26  32 E9        30.22F
RED OAK *      CLOUDY    57  30  35 SE13G23   30.24F
SHENANDOAH *   CLOUDY    54  36  50 VRB6      30.25F
$$

IAZ047>049-059>061-072>074-084-212100-
   CENTRAL IOWA

CITY           SKY/WX    TMP DP  RH WIND       PRES   REMARKS
AMES           CLOUDY    58  27  30 E8        30.30F
ANKENY *       PTSUNNY   57  27  30 E10       30.30F
BOONE *        PTSUNNY   57  25  28 E15       30.29F
CHARITON *     CLOUDY    59  27  29 E15       30.26F
DES MOINES     CLOUDY    57  27  31 E10       30.28F
GRINNELL*      CLOUDY    58  23  25 E12G17    30.30F
KNOXVILLE *    CLOUDY    59  19  21 SE13      30.26F
MARSHALLTOWN   CLOUDY    59  26  28 SE10      30.30F
NEWTON *       MOSUNNY   57  25  28 E13       30.29F
PELLA *        PTSUNNY   59  20  21 E7        30.28F
$$

IAZ004>006-015-016-023>025-035-036-212100-
   NORTH CENTRAL IOWA

CITY           SKY/WX    TMP DP  RH WIND       PRES   REMARKS
ALGONA *       CLOUDY    50  34  53 E13       30.34F
CLARION *      SUNNY     59  34  38 E15       30.31F
ESTHERVILLE    CLOUDY    38  33  82 NE7       30.34F WCI  33
FORT DODGE *   CLOUDY    60  29  30 SE10      30.31F
MASON CITY     CLOUDY    47  38  71 NE10      30.36F
FOREST CITY *  CLOUDY    50  32  50 E6        30.35F
WEBSTER CITY * PTSUNNY   61  27  27 SE16      30.29F
IOWA FALLS *   FAIR      62  29  29 SE12G17   30.32F
$$

IAZ007>011-017>019-026>030-037>042-050>054-066-212100-
   NORTHEAST IOWA

CITY           SKY/WX    TMP DP  RH WIND       PRES   REMARKS
CEDAR RAPIDS   FAIR      60  27  28 E12       30.31F
CHARLES CITY * FAIR      57  36  44 E7G16     30.35F
CLINTON *        N/A     58  34  40 E14G23    30.35F
DECORAH *      CLOUDY    52  34  50 E6        30.37F
DUBUQUE        PTSUNNY   55  31  39 SE14      30.37F
MONTICELLO *   FAIR      57  27  30 E14       30.34F
OELWEIN *      FAIR      55  34  44 SE14      30.35F
WATERLOO       FAIR      59  31  34 E15G24    30.33F
$$

IAZ064-065-067-068-078-212100-
   EAST CENTRAL IOWA

CITY           SKY/WX    TMP DP  RH WIND       PRES   REMARKS
DAVENPORT      FAIR      59  27  29 E13       30.35F
IOWA CITY      FAIR      60  26  27 E12       30.31F
MT. PLEASANT * MOSUNNY   61  21  21 E17       30.28F
MUSCATINE *    FAIR      61  23  23 E14       30.31F
QUAD CITIES    FAIR      61  25  25 SE16G26   30.32F
$$

IAZ062-063-075>077-085>089-095>099-212100-
   SOUTHEAST IOWA

CITY           SKY/WX    TMP DP  RH WIND       PRES   REMARKS
BURLINGTON     CLOUDY    61  22  22 E15G22    30.28F
FAIRFIELD *    CLOUDY    61  23  23 E16G23    30.27F
FORT MADISON * MOSUNNY   63  28  27 E16G22    30.26F
KEOKUK *       CLOUDY    61  30  31 E16       30.25F
OSKALOOSA *    CLOUDY    60  23  23 SE13G20   30.27F
CENTERVILLE *    N/A     59  27  29 E13       30.27F
OTTUMWA        CLOUDY    59  24  26 E17       30.27F
WASHINGTON *   MOSUNNY   64  23  20 SE20G26   30.29F
$$

ABBREVIATIONS USED IN REMARKS
   TC - TEMPERATURES IN CELSIUS
  WCI - WIND CHILL INDEX
   HX - HEAT INDEX
  VSB - VISIBILITY
$$





USA.gov is the U.S. government's official web portal to all federal, state and local government web resources and services.